Regional Weather Roundup
Issued by NWS

Home | Current Version | Previous Version | Text Only | Print | Product List | Glossary On
Versions: 1 2 3 4 5 6 7 8 9 10 11 12 13 14 15 16 17 18 19 20 21 22 23 24 25 26 27 28 29 30 31 32 33 34 35 36 37 38 39 40 41 42 43 44 45 46 47 48 49 50
369
ASUS43 KLOT 050012
RWRIL

ILLINOIS REGIONAL WEATHER ROUNDUP
NATIONAL WEATHER SERVICE CHICAGO/ROMEOVILLE IL
600 PM CST SUN DEC 04 2016

NOTE: "FAIR" INDICATES FEW OR NO CLOUDS BELOW 12,000 FEET WITH NO
SIGNIFICANT WEATHER AND/OR OBSTRUCTIONS TO VISIBILITY.

* THESE STATIONS ARE NOT UNDER NWS QUALITY CONTROL. THEY ALSO MAY NOT
  REPORT WEATHER SUCH AS PRECIPITATION OR FOG.

ILZ001-002-007-009-015-016-024-050100-
NORTHWEST ILLINOIS

CITY           SKY/WX    TMP DP  RH WIND       PRES   REMARKS
MOLINE         CLOUDY    34  31  88 SW6       29.91S FOG     WCI  29
6HR MIN TEMP:  32; 6HR MAX TEMP:  34; 6HR PCP:  0.17;

STERLING*      MOCLDY    31  29  92 CALM      29.92S FOG
SAVANNA*       CLOUDY    32  31  96 S5        29.90F FOG     WCI  27
$$

ILZ003-004-008-010-011-017-018-050100-
NORTH CENTRAL ILLINOIS

CITY           SKY/WX    TMP DP  RH WIND       PRES   REMARKS
ROCKFORD       LGT SNOW  30  29  96 S5        29.92S VSB 3/4 WCI  25
6HR MIN TEMP:  30; 6HR MAX TEMP:  31; 6HR PCP:  0.23;

FREEPORT*      CLOUDY    30  29  96 SW6       29.91S FOG     WCI  24
ROCHELLE*      CLOUDY    29  28  99 CALM      29.91F FOG
DE KALB*       LGT SNOW  30  30  98 CALM      29.90R
$$

ILZ005-006-012>014-019>023-050100-
NORTHEAST ILLINOIS

CITY           SKY/WX    TMP DP  RH WIND       PRES   REMARKS
CHICAGO-OHARE  LGT SNOW  32  31  96 CALM      29.89F VSB 1
6HR MIN TEMP:  31; 6HR MAX TEMP:  32; 6HR PCP:  0.41;

CHICAGO-MIDWAY LGT SNOW  33  30  88 NW3       29.90S FOG
6HR MIN TEMP:  32; 6HR MAX TEMP:  33; 6HR PCP:  0.41;

AURORA         SNOW      31  30  96 CALM      29.91S VSB 1/4
6HR MIN TEMP:  31; 6HR MAX TEMP:  33; 6HR PCP:  0.13;

LANSING*       LGT SNOW  32  32 100 CALM      29.89F
JOLIET*        LGT SNOW  33  33 100 CALM      29.90F VSB 1
WAUKEGAN       LGT SNOW  32  31  96 S6        29.88F FOG     WCI  26
6HR MIN TEMP:  32; 6HR MAX TEMP:  33; 6HR PCP:  0.30;

DUPAGE AIRPORT SNOW      31  29  92 CALM      29.89S VSB 1/2
6HR MIN TEMP:  31; 6HR MAX TEMP:  32; 6HR PCP:  0.30;

KANKAKEE*      LGT RAIN  32  32  99 CALM      29.90S
WHEELING       LGT SNOW  32  31  96 CALM      29.91F FOG
6HR MIN TEMP:  31; 6HR MAX TEMP:  32; 6HR PCP:  0.37;

MORRIS*        LGT SNOW  30  30  97 CALM      29.91R VSB 1
ROMEOVILLE*    LGT SNOW  31  31 100 CALM      29.89F
NORTHERLY ISL    N/A     33  32  96 CALM        N/A
$$

LMZ740>746-050100-
SOUTHERN LAKE MICHIGAN

STATION/POSITION SKY/WX   TEMP    WIND        PRES    VSBY  WAVE
                          AIR SEA DIR/SP/G                  HT/PER
                          (F)     (DEG/KT/KT) (MB)    (MI)  (FT/S)
SOUTHERN BUOY              36 48  180/ 12/ 14 1012.7R         3/ 5
HARRISON CRIB              34     310/  2/  3   N/A
BURNHAM HARBOR             33     300/  1/  6   N/A
CALUMET HARBOR             32     310/  3/  4 1011.9F
BURNS HARBOR               34     270/  7/  8 1012.9R
$$

ILZ025>027-034>036-040-047-049-050-058-095>099-050100-
WEST-CENTRAL ILLINOIS

CITY           SKY/WX    TMP DP  RH WIND       PRES   REMARKS
QUINCY         CLOUDY    35  32  88 W13       29.95S WCI  26
GALESBURG*     CLOUDY    32  32 100 SW3       29.93R FOG
MACOMB*        CLOUDY    33  33 100 W8        29.96S FOG     WCI  26
JACKSONVILLE*  CLOUDY    33  32  95 W7        29.96R WCI  27
PITTSFIELD*    CLOUDY    35  33  94 W5        29.98R WCI  31
$$

ILZ028>032-037-038-041>044-048-051>054-059>061-050100-
CENTRAL ILLINOIS

CITY           SKY/WX    TMP DP  RH WIND       PRES   REMARKS
PONTIAC        MIX PCPN  32  32 100 CALM      29.91F
BLOOMINGTON    CLOUDY    32  31  96 W5        29.91S FOG     WCI  27
DECATUR        CLOUDY    33  33 100 W8        29.93S WCI  26
PEORIA         CLOUDY    33  33 100 W3        29.93S FOG
6HR MIN TEMP:  32; 6HR MAX TEMP:  34; 6HR PCP:  0.18;

LACON*         DRIZZLE   31  31 100 CALM      29.92R
LINCOLN*       CLOUDY    33  33 100 CALM      29.94R FOG
SPRINGFIELD    CLOUDY    34  32  92 W6        29.95R FOG     WCI  29
6HR MIN TEMP:  34; 6HR MAX TEMP:  35; 6HR PCP:  0.17;

TAYLORVILLE    CLOUDY    33  32  99 W8        29.95R FOG     WCI  25
6HR MIN TEMP:  32; 6HR MAX TEMP:  34; 6HR PCP:  0.12;

$$

ILZ033-039-045-046-055>057-062-063-050100-
EAST-CENTRAL ILLINOIS

CITY           SKY/WX    TMP DP  RH WIND       PRES   REMARKS
CHAMPAIGN      FOG       33  31  92 W9        29.91R VSB 3/4 WCI  25
RANTOUL*       CLOUDY    34  34  99 W9        29.90R FOG     WCI  27
MATTOON        CLOUDY    36  33  89 W13       29.91R WCI  27
PARIS*         CLOUDY    37  36  96 W13G18    29.91R WCI  28
$$

ILZ079-100>102-050100-
SOUTHWEST ILLINOIS

CITY           SKY/WX    TMP DP  RH WIND       PRES   REMARKS
ALTON          CLOUDY    37  36  93 NW12      29.98R WCI  30
BELLEVILLE     CLOUDY    40  40  99 W8        29.97R
CAHOKIA*       CLOUDY    42  35  76 W10       29.99R
SPARTA*        CLOUDY    40  36  86 W8        30.00R
$$

ILZ064>066-069>071-074>076-080>082-084>086-088>090-092>094-050100-
SOUTH-CENTRAL ILLINOIS

CITY           SKY/WX    TMP DP  RH WIND       PRES   REMARKS
CARBONDALE     CLOUDY    41  38  89 W8        30.00R
6HR MIN TEMP:  41; 6HR MAX TEMP:  43; 6HR PCP:  0.03;

CAIRO*         CLOUDY    42  39  89 W7        30.01R
EFFINGHAM*     CLOUDY    38  37  97 W10       29.96R WCI  31
MARION         CLOUDY    43  43 100 W6        30.00R
CENTRALIA*     CLOUDY    40  37  91 W9        29.97R
SALEM*         CLOUDY    40  36  84 W13       29.96S
METROPOLIS*    MOCLDY    43  40  90 W6        30.00R
$$

ILZ067-068-072-073-078-083-087-091-050100-
SOUTHEAST ILLINOIS

CITY           SKY/WX    TMP DP  RH WIND       PRES   REMARKS
LAWRENCEVILLE  CLOUDY    41  39  93 W12G22    29.94R
FLORA*         CLOUDY    41  36  84 NW14G20   29.97R
FAIRFIELD*     CLOUDY    40  38  93 W5        29.96R
HARRISBURG*    CLOUDY    42  40  92 W6        29.98R
ROBINSON*      CLOUDY    39  37  91 W15       29.94R WCI  31
CARMI*         MOCLDY    41  39  91 W13       29.96R
$$

ABBREVIATIONS USED IN REMARKS
   TC - TEMPERATURE IN CELSIUS
  WCI - WIND CHILL INDEX
   HX - HEAT INDEX
  VSB - VISIBILITY
$$





USA.gov is the U.S. government's official web portal to all federal, state and local government web resources and services.